Location: Chèvreville
(49.1099°N, 2.8495°E)
Time: 12:34:23
(UTC+00:00)

BlueWalker 3 - Pass Details

Date: 21 January 2026
Orbit: 450 x 461 km, 53.2° (Epoch: 11 February)

Event Time Altitude Azimuth Distance (km) Brightness Sun altitude
Rises 18:56:22 0° 228° (SW) 2,447 6.2 -23.9°
Reaches altitude 10° 18:58:31 10° 223° (SW) 1,577 5.0 -24.3°
Enters shadow 19:00:20 27° 210° (SSW) 906 3.5 -24.6°
